Terug naar catalogus

FENGYUN 1C DEB

ActiefPO
NORAD 31300·DEBRIS·🇨🇳 China

Gelanceerd May 10, 1999 vanaf Taiyuan Satellite Launch Center

Loading…

Volgende Passages (komende 24 uur)

TLE

VersSource: Space-Track

Epoch: Sep 14, 2026, 03:01 UTC

1 31300U 99025BPJ 26257.12629693  .00001641  00000-0  83744-3 0  9993
2 31300  99.5381   0.6505 0058864  12.2789 107.8499 14.16353723   485

Volg FENGYUN 1C DEB in realtime met AllMySat

Download on the App Store